Voltar ao catálogo

FREGAT DEB

LostUNKNOWN
NORAD 45901·DEBRIS·🇷🇺 Russia

Lançado Jul 18, 2011 de Baikonur Cosmodrome

Loading…

Próximas Passagens (próximas 24 horas)

TLE

ObsoletoSource: Space-Track

Época: Mar 9, 2026, 06:50 UTC

1 45901U 11037DW  26068.28528837  .00023151  00000-0  38007-1 0  9997
2 45901  51.4410  38.9107 2053184 109.1991 274.1337 10.37930377 96931

Acompanhe FREGAT DEB em tempo real com AllMySat

Download on the App Store